Location: Great Malvern
(52.1167°N, 2.3167°W)
Time: 07:03:13
(UTC+00:00)

SJ-6B - Pass Details

Date: 18 September 2020
Orbit: 511 x 580 km, 97.6° (Epoch: 19 October)

Event Time Altitude Azimuth Distance (km) Brightness Sun altitude
Exits shadow 19:21:33 - 145° (SE) 1,789 5.0 -10.7°
Reaches altitude 10° 19:21:42 10° 145° (SE) 1,733 4.9 -10.7°
Maximum altitude 19:25:17 48° 71° (ENE) 680 2.9 -11.3°
Drops below altitude 10° 19:28:56 10° 356° (N) 1,760 5.7 -11.8°
Sets 19:31:06 0° 351° (N) 2,660 6.7 -12.1°
